This is the latest recevied weather packets stored in our database for station/object M0TUM-1. If no packets are shown the sender has not sent any weather packets the latest 10 day(s).
| Time | Temp. | Humidity | Pressure | Rain* | Wind** | Luminosity | Snow |
|---|---|---|---|---|---|---|---|
| 1777642215 | 23.89° C | 29% | 1019.9 hPa | 0 mm | - | 577 W/m² | - |
| 1777641913 | 23.89° C | 29% | 1020.1 hPa | 0 mm | - | 564 W/m² | - |
| 1777641608 | 23.89° C | 28% | 1019.9 hPa | 0 mm | - | 580 W/m² | - |
| 1777641302 | 23.33° C | 28% | 1020 hPa | 0 mm | - | 607 W/m² | - |
| 1777640998 | 23.33° C | 29% | 1020 hPa | 0 mm | - | 609 W/m² | - |
| 1777640695 | 23.33° C | 29% | 1020.2 hPa | 0 mm | - | 612 W/m² | - |
| 1777640391 | 22.78° C | 29% | 1020 hPa | 0 mm | - | 613 W/m² | - |
| 1777640089 | 22.78° C | 29% | 1020.3 hPa | 0 mm | - | 609 W/m² | - |
| 1777639785 | 22.78° C | 29% | 1020.3 hPa | 0 mm | - | 392 W/m² | - |
| 1777639483 | 22.78° C | 30% | 1020.3 hPa | 0 mm | - | 615 W/m² | - |
| 1777639179 | 22.78° C | 29% | 1020.2 hPa | 0 mm | - | 614 W/m² | - |
| 1777638876 | 22.22° C | 30% | 1020.3 hPa | 0 mm | - | 621 W/m² | - |
| 1777638571 | 22.78° C | 29% | 1020.2 hPa | 0 mm | - | 642 W/m² | - |
| 1777638268 | 22.78° C | 29% | 1020.3 hPa | 0 mm | - | 645 W/m² | - |
| 1777637964 | 22.78° C | 29% | 1020.2 hPa | 0 mm | - | 645 W/m² | - |
| 1777637661 | 22.78° C | 28% | 1020.5 hPa | 0 mm | - | 639 W/m² | - |
| 1777637358 | 22.22° C | 29% | 1020.8 hPa | 0 mm | - | 635 W/m² | - |
| 1777637055 | 22.22° C | 29% | 1020.4 hPa | 0 mm | - | 636 W/m² | - |
| 1777636750 | 22.78° C | 30% | 1020.7 hPa | 0 mm | - | 630 W/m² | - |
| 1777636447 | 22.22° C | 31% | 1020.6 hPa | 0 mm | - | 619 W/m² | - |
| 1777636142 | 21.67° C | 30% | 1020.7 hPa | 0 mm | - | 623 W/m² | - |
| 1777635838 | 22.22° C | 30% | 1020.9 hPa | 0 mm | - | 602 W/m² | - |
| 1777635534 | 21.67° C | 31% | 1021.1 hPa | 0 mm | - | 544 W/m² | - |
| 1777635231 | 21.67° C | 30% | 1021.1 hPa | 0 mm | - | 585 W/m² | - |
| 1777634928 | 21.67° C | 30% | 1020.7 hPa | 0 mm | - | 639 W/m² | - |
* Rain latest hour (hover to see other rain measurements)
** Current wind speed in m/s (hover to see current wind gust speed)